When you browse on this site, cookies collect data to enhance your experience and personalize the content and advertising you see.
Visit our Privacy Policy to learn more. By continuing to use the site, you agree to this use of cookies and data.
  • In Czech Republic
  • List of Countries
  • For 7 days
  • Water Temperature
  • Satellite Maps
  • Weather Map
  • Weather Widgets
  • user-avatar
    Login

    Hourly Weather Tianjin

    Today, 22 January, Tuesday

    Time Temperature Precipitation Wind Pressure Humidity
    00:00 +1°C° 0 mm 2 mps 765 mmHg 16%
    01:00 -1°C° 0 mm 2 mps 765 mmHg 17%
    02:00 -1°C° 0 mm 2 mps 764 mmHg 18%
    03:00 -1°C° 0 mm 2 mps 764 mmHg 18%
    04:00 -2°C° 0 mm 2 mps 764 mmHg 19%
    05:00 -2°C° 0 mm 2 mps 764 mmHg 19%
    06:00 -2°C° 0 mm 2 mps 764 mmHg 20%
    07:00 -2°C° 0 mm 2 mps 764 mmHg 20%
    08:00 0°C° 0 mm 1 mps 764 mmHg 20%
    09:00 +1°C° 0 mm 2 mps 764 mmHg 19%
    10:00 +2°C° 0 mm 2 mps 764 mmHg 17%
    11:00 +4°C° 0 mm 2 mps 764 mmHg 15%
    12:00 +5°C° 0 mm 3 mps 764 mmHg 14%
    13:00 +7°C° 0 mm 3 mps 764 mmHg 12%
    14:00 +8°C° 0 mm 3 mps 763 mmHg 11%
    15:00 +8°C° 0 mm 3 mps 764 mmHg 12%
    16:00 +7°C° 0 mm 2 mps 764 mmHg 12%
    17:00 +6°C° 0 mm 2 mps 764 mmHg 13%
    18:00 +5°C° 0 mm 2 mps 764 mmHg 14%
    19:00 +5°C° 0 mm 2 mps 764 mmHg 15%
    20:00 +4°C° 0 mm 2 mps 764 mmHg 16%
    21:00 +3°C° 0 mm 2 mps 765 mmHg 16%
    22:00 +3°C° 0 mm 2 mps 765 mmHg 17%
    23:00 +2°C° 0 mm 2 mps 766 mmHg 17%

    Tomorrow, 23 January, Wednesday

    Time Temperature Precipitation Wind Pressure Humidity
    00:00 +2°C° 0 mm 2 mps 766 mmHg 18%
    01:00 +2°C° 0 mm 2 mps 766 mmHg 19%
    02:00 +1°C° 0 mm 2 mps 766 mmHg 20%
    03:00 +1°C° 0 mm 2 mps 766 mmHg 21%
    04:00 -1°C° 0 mm 2 mps 766 mmHg 22%
    05:00 -1°C° 0 mm 2 mps 767 mmHg 23%
    06:00 -1°C° 0 mm 2 mps 767 mmHg 24%
    07:00 +1°C° 0 mm 1 mps 768 mmHg 26%
    08:00 +1°C° 0 mm 1 mps 768 mmHg 27%
    09:00 +1°C° 0 mm 2 mps 769 mmHg 26%
    10:00 +3°C° 0 mm 2 mps 769 mmHg 25%
    11:00 +5°C° 0 mm 2 mps 770 mmHg 24%
    12:00 +5°C° 0 mm 3 mps 769 mmHg 26%
    13:00 +5°C° 0 mm 3 mps 769 mmHg 29%
    14:00 +6°C° 0 mm 4 mps 769 mmHg 31%
    15:00 +5°C° 0 mm 4 mps 769 mmHg 35%
    16:00 +4°C° 0 mm 4 mps 769 mmHg 39%
    17:00 +4°C° 0 mm 4 mps 769 mmHg 44%
    18:00 +3°C° 0 mm 4 mps 770 mmHg 50%
    19:00 +1°C° 0 mm 4 mps 770 mmHg 56%
    20:00 +1°C° 0 mm 3 mps 770 mmHg 63%
    21:00 +1°C° 0 mm 3 mps 770 mmHg 65%
    22:00 0°C° 0 mm 3 mps 771 mmHg 66%
    23:00 0°C° 0 mm 3 mps 771 mmHg 68%

    Day after tomorrow, 24 January, Thursday

    Time Temperature Precipitation Wind Pressure Humidity
    00:00 0°C° 0 mm 3 mps 771 mmHg 69%
    01:00 -1°C° 0 mm 2 mps 770 mmHg 71%
    02:00 -1°C° 0 mm 2 mps 770 mmHg 72%
    03:00 -2°C° 0 mm 2 mps 770 mmHg 73%
    04:00 0°C° 0 mm 1 mps 770 mmHg 75%
    05:00 0°C° 0 mm 1 mps 770 mmHg 77%
    06:00 0°C° 0 mm 1 mps 770 mmHg 77%
    07:00 -1°C° 0 mm 1 mps 770 mmHg 78%
    08:00 -3°C° 0 mm 2 mps 770 mmHg 78%
    09:00 -1°C° 0 mm 2 mps 770 mmHg 69%
    10:00 +2°C° 0 mm 2 mps 770 mmHg 61%
    11:00 +3°C° 0 mm 2 mps 771 mmHg 52%
    12:00 +4°C° 0 mm 2 mps 770 mmHg 48%
    13:00 +5°C° 0 mm 2 mps 769 mmHg 44%
    14:00 +6°C° 0 mm 2 mps 769 mmHg 40%
    15:00 +5°C° 0 mm 2 mps 769 mmHg 42%
    16:00 +5°C° 0 mm 2 mps 769 mmHg 43%
    17:00 +4°C° 0 mm 2 mps 769 mmHg 44%
    18:00 +4°C° 0 mm 2 mps 769 mmHg 48%
    19:00 +3°C° 0 mm 2 mps 770 mmHg 51%
    20:00 +2°C° 0 mm 2 mps 771 mmHg 54%
    21:00 +2°C° 0 mm 2 mps 771 mmHg 57%
    22:00 +1°C° 0 mm 2 mps 772 mmHg 60%
    23:00 +1°C° 0 mm 2 mps 772 mmHg 62%

    25 January, Friday

    Time Temperature Precipitation Wind Pressure Humidity
    00:00 -1°C° 0 mm 2 mps 773 mmHg 62%
    01:00 -1°C° 0 mm 2 mps 773 mmHg 62%
    02:00 -1°C° 0 mm 2 mps 773 mmHg 63%
    03:00 -2°C° 0 mm 2 mps 773 mmHg 55%
    04:00 -2°C° 0 mm 3 mps 774 mmHg 47%
    05:00 -2°C° 0 mm 3 mps 774 mmHg 40%
    06:00 -3°C° 0 mm 2 mps 775 mmHg 39%
    07:00 -3°C° 0 mm 2 mps 775 mmHg 38%
    08:00 -3°C° 0 mm 2 mps 776 mmHg 37%
    09:00 -1°C° 0 mm 3 mps 776 mmHg 32%
    10:00 0°C° 0 mm 3 mps 777 mmHg 27%
    11:00 +1°C° 0 mm 4 mps 777 mmHg 21%
    12:00 +1°C° 0 mm 5 mps 777 mmHg 20%
    13:00 +2°C° 0 mm 5 mps 776 mmHg 18%
    14:00 +2°C° 0 mm 5 mps 776 mmHg 17%
    15:00 +3°C° 0 mm 4 mps 776 mmHg 17%
    16:00 +3°C° 0 mm 4 mps 776 mmHg 17%
    17:00 +2°C° 0 mm 3 mps 776 mmHg 17%
    18:00 +1°C° 0 mm 3 mps 776 mmHg 18%
    19:00 +2°C° 0 mm 2 mps 777 mmHg 19%
    20:00 +1°C° 0 mm 2 mps 777 mmHg 20%
    21:00 -1°C° 0 mm 2 mps 778 mmHg 20%
    22:00 -1°C° 0 mm 3 mps 778 mmHg 19%
    23:00 -2°C° 0 mm 3 mps 778 mmHg 19%

    26 January, Saturday

    Time Temperature Precipitation Wind Pressure Humidity
    00:00 -2°C° 0 mm 3 mps 778 mmHg 20%
    01:00 -3°C° 0 mm 2 mps 778 mmHg 21%
    02:00 -3°C° 0 mm 2 mps 778 mmHg 22%
    03:00 -3°C° 0 mm 2 mps 778 mmHg 23%
    04:00 -2°C° 0 mm 1 mps 778 mmHg 23%
    05:00 -2°C° 0 mm 1 mps 778 mmHg 24%
    06:00 -2°C° 0 mm 1 mps 778 mmHg 23%
    07:00 -2°C° 0 mm 1 mps 778 mmHg 23%
    08:00 -2°C° 0 mm 1 mps 778 mmHg 23%
    09:00 -1°C° 0 mm 1 mps 778 mmHg 21%
    10:00 +1°C° 0 mm 1 mps 778 mmHg 18%
    11:00 +2°C° 0 mm 2 mps 778 mmHg 16%
    12:00 +2°C° 0 mm 2 mps 778 mmHg 15%
    13:00 +3°C° 0 mm 2 mps 777 mmHg 15%
    14:00 +4°C° 0 mm 2 mps 776 mmHg 14%
    15:00 +5°C° 0 mm 1 mps 776 mmHg 16%
    16:00 +5°C° 0 mm 1 mps 776 mmHg 17%
    17:00 +4°C° 0 mm 1 mps 775 mmHg 19%
    18:00 +4°C° 0 mm 1 mps 775 mmHg 20%
    19:00 +3°C° 0 mm 1 mps 775 mmHg 22%
    20:00 +1°C° 0 mm 2 mps 775 mmHg 23%
    21:00 +1°C° 0 mm 2 mps 775 mmHg 23%
    22:00 -1°C° 0 mm 2 mps 775 mmHg 23%
    23:00 -1°C° 0 mm 2 mps 775 mmHg 24%

    27 January, Sunday

    Time Temperature Precipitation Wind Pressure Humidity
    00:00 -2°C° 0 mm 2 mps 774 mmHg 24%
    01:00 -2°C° 0 mm 2 mps 774 mmHg 24%
    02:00 -2°C° 0 mm 2 mps 774 mmHg 24%
    03:00 -2°C° 0 mm 2 mps 773 mmHg 24%
    04:00 -3°C° 0 mm 2 mps 773 mmHg 25%
    05:00 -3°C° 0 mm 2 mps 772 mmHg 25%
    06:00 -3°C° 0 mm 2 mps 772 mmHg 25%
    07:00 -3°C° 0 mm 2 mps 772 mmHg 25%
    08:00 -3°C° 0 mm 2 mps 772 mmHg 25%
    09:00 -1°C° 0 mm 3 mps 772 mmHg 22%
    10:00 +1°C° 0 mm 3 mps 772 mmHg 20%
    11:00 +2°C° 0 mm 3 mps 771 mmHg 17%
    12:00 +3°C° 0 mm 3 mps 770 mmHg 16%
    13:00 +4°C° 0 mm 3 mps 769 mmHg 16%
    14:00 +5°C° 0 mm 3 mps 769 mmHg 15%
    15:00 +5°C° 0 mm 3 mps 768 mmHg 16%
    16:00 +6°C° 0 mm 2 mps 768 mmHg 17%
    17:00 +7°C° 0 mm 1 mps 768 mmHg 18%
    18:00 +5°C° 0 mm 2 mps 768 mmHg 19%
    19:00 +4°C° 0 mm 2 mps 768 mmHg 21%
    20:00 +3°C° 0 mm 2 mps 768 mmHg 22%
    21:00 +3°C° 0 mm 2 mps 768 mmHg 23%
    22:00 +1°C° 0 mm 3 mps 768 mmHg 24%
    23:00 +1°C° 0 mm 3 mps 768 mmHg 25%
    Show more